User: anonymous   Login
Location: Ash Swamp
(41.5170°N, 74.6157°W)
Time: 14:07:34
(UTC+00:00)
Language:

Cosmos 1802 Rocket - Orbit

View from above orbital plane
View from above orbital plane
View from above satellite
View from above satellite

Ground track
Ground track

The orbit data is extracted from the following two-line orbital elements,

1 17160U 86093B   20262.74488647 -.00000046 +00000-0 -64261-4 0  9996
2 17160 082.9238 261.8007 0040283 074.2701 098.7740 13.74639351696021
Epoch (UTC): 18 September 2020 17:52:38
Eccentricity: 0.0040283
inclination: 82.9238°
perigee height: 953 km
apogee height: 1012 km
right ascension of ascending node: 261.8007°
argument of perigee: 74.2701°
revolutions per day: 13.74639351
mean anomaly at epoch: 98.7740°
orbit number at epoch: 69602

The dashed part of the orbit path shows where the satellite is in the earth's shadow,  

DLR